Weather in Chervlenoye

Russia / Volgograd Oblast     48°26′22″N   44°22′39″E
temp.,
°C
wind,
m/s
gust,
m/s
humid.,
%
clouds,
%
prec.,
mm/h
press.,
hPa
HPBL,
m
9 may, sun
sun900:00+17sse41057100 0.0 1011247
03:00+16s61153100 0.0 1010253
06:00+14sse61257100 0.0 1010312
09:00+17s6951100 0.0 1010541
12:00+20sse5749100 0.0 10091029
15:00+20sse6750100 0.0 10091100
18:00+11nnw101184100 2.4 1010373
21:00+8nw91387100 7.1 1013646
10 may, mon
mon1000:00+7nw101489100 5.5 1014780
03:00+7nw101490100 13.4 1013688
06:00+7wnw91390100 2.9 1013758
09:00+7w81086100 3.9 1013693
12:00+8w81085100 0.4 1012658
15:00+9wsw7981100 0.6 1012776
18:00+8ssw6884100 0.6 1013665
21:00+8s5783100 0.9 1015531
11 may, tue
tue1100:00+8sse5879100 0.0 1016703
03:00+8sse5979100 0.1 1017598
06:00+8se598368 0.0 1019723
09:00+11se5766100 0.1 10211287
12:00+12s456383 0.0 1022809
15:00+16ene4450100 0.0 10221047
18:00+15e355690 0.0 1022446
21:00+13ene2262100 0.0 102229
12 may, wed
wed1200:00+11ene46815 0.0 1022177
03:00+10ne22850 0.0 102161
06:00+10ne247985 0.0 1022167
09:00+14nne34625 0.0 1021436
12:00+17nne344875 0.0 1020784
15:00+19ene2456100 0.0 10191144
18:00+18ne3468100 0.0 1018162
21:00+17nne2270100 0.0 101722
13 may, thu
thu1300:00+16n227837 0.0 101713
03:00+15ssw118013 0.0 101711
06:00+16ese22787 0.0 101773
09:00+20e23620 0.0 1018554
12:00+22e33520 0.0 10181065
15:00+24e34475 0.0 10181196
18:00+24ese345183 0.0 1017419
21:00+20ese226465 0.0 101821